�������l�o���
Date,Time,MP-1(��Sv/h),MP-2(��Sv/h),MP-3(��Sv/h),MP-4(��Sv/h),MP-5(��Sv/h),MP-6(��Sv/h),MP-7(��Sv/h),MP-8(��Sv/h),����,����(m/s),���J
2017/04/23,00:00,1.019,1.649,1.105,1.975,1.356,0.542,0.994,0.920,�k��,1.4,��
2017/04/23,00:10,1.020,1.655,1.104,1.975,1.355,0.541,0.996,0.920,�k�k��,1.5,��
2017/04/23,00:20,1.018,1.651,1.102,1.976,1.352,0.542,0.994,0.922,�k��,1.4,��
2017/04/23,00:30,1.019,1.650,1.104,1.973,1.353,0.542,0.993,0.922,�k��,2.0,��
2017/04/23,00:40,1.017,1.651,1.105,1.977,1.355,0.541,0.992,0.920,���k��,2.6,��
2017/04/23,00:50,1.019,1.653,1.105,1.976,1.355,0.542,0.994,0.921,���k��,3.5,��
2017/04/23,01:00,1.021,1.651,1.106,1.973,1.355,0.542,0.996,0.920,���k��,4.0,��
2017/04/23,01:10,1.019,1.653,1.105,1.975,1.355,0.543,0.994,0.922,���k��,5.0,��
2017/04/23,01:20,1.019,1.652,1.106,1.976,1.354,0.543,0.996,0.921,���k��,4.5,��
2017/04/23,01:30,1.018,1.652,1.104,1.975,1.357,0.542,0.994,0.921,���k��,4.9,��
2017/04/23,01:40,1.020,1.651,1.106,1.977,1.355,0.541,0.994,0.920,���k��,6.2,��
2017/04/23,01:50,1.019,1.650,1.102,1.973,1.354,0.540,0.994,0.920,���k��,6.0,��
2017/04/23,02:00,1.019,1.652,1.105,1.975,1.353,0.542,0.994,0.919,���k��,5.2,��
2017/04/23,02:10,1.018,1.647,1.103,1.971,1.354,0.542,0.995,0.920,���k��,5.4,��
2017/04/23,02:20,1.018,1.651,1.105,1.977,1.353,0.542,0.995,0.922,���k��,4.5,��
2017/04/23,02:30,1.017,1.648,1.105,1.974,1.355,0.542,0.995,0.919,�k��,4.1,��
2017/04/23,02:40,1.017,1.651,1.104,1.974,1.352,0.542,0.994,0.921,�k��,3.7,��
2017/04/23,02:50,1.017,1.651,1.102,1.976,1.353,0.542,0.996,0.920,�k��,3.5,��
2017/04/23,03:00,1.018,1.651,1.103,1.972,1.354,0.541,0.994,0.921,�k��,5.6,��
2017/04/23,03:10,1.019,1.649,1.104,1.977,1.351,0.542,0.994,0.922,�k��,5.1,��
2017/04/23,03:20,1.018,1.651,1.104,1.975,1.355,0.541,0.994,0.919,�k��,5.4,��
2017/04/23,03:30,1.018,1.648,1.105,1.976,1.354,0.541,0.993,0.919,�k��,5.8,��
2017/04/23,03:40,1.018,1.651,1.103,1.975,1.353,0.541,0.995,0.921,�k��,7.0,��
2017/04/23,03:50,1.018,1.652,1.104,1.976,1.352,0.542,0.996,0.919,�k��,6.1,��
2017/04/23,04:00,1.015,1.650,1.105,1.976,1.353,0.541,0.995,0.920,�k��,5.2,��
2017/04/23,04:10,1.018,1.651,1.103,1.976,1.350,0.544,0.994,0.920,�k��,4.0,��
2017/04/23,04:20,1.018,1.653,1.105,1.973,1.353,0.542,0.996,0.921,�k��,3.4,��
2017/04/23,04:30,1.016,1.649,1.107,1.974,1.354,0.539,0.996,0.923,�k��,3.7,��
2017/04/23,04:40,1.017,1.651,1.105,1.976,1.353,0.542,0.995,0.921,�k��,5.2,��
2017/04/23,04:50,1.016,1.649,1.102,1.975,1.350,0.542,0.994,0.920,�k��,5.2,��
2017/04/23,05:00,1.016,1.650,1.103,1.975,1.352,0.542,0.994,0.920,�k��,5.3,��
2017/04/23,05:10,1.016,1.650,1.104,1.972,1.353,0.541,0.991,0.920,�k��,4.5,��
2017/04/23,05:20,1.017,1.648,1.102,1.973,1.355,0.541,0.995,0.920,�k�k��,4.5,��
2017/04/23,05:30,1.017,1.649,1.103,1.976,1.353,0.541,0.995,0.921,�k�k��,4.5,��
2017/04/23,05:40,1.019,1.648,1.103,1.972,1.353,0.542,0.995,0.921,�k�k��,3.7,��
2017/04/23,05:50,1.016,1.649,1.102,1.977,1.353,0.542,0.994,0.920,�k�k��,2.9,��
2017/04/23,06:00,1.018,1.648,1.102,1.977,1.355,0.543,0.994,0.921,�k��,2.2,��
2017/04/23,06:10,1.016,1.651,1.103,1.974,1.354,0.543,0.994,0.921,�k��,3.6,��
2017/04/23,06:20,1.019,1.651,1.104,1.977,1.353,0.542,0.996,0.922,�k��,3.4,��
2017/04/23,06:30,1.018,1.652,1.105,1.977,1.354,0.544,0.996,0.923,�k�k��,3.1,��
2017/04/23,06:40,1.016,1.651,1.107,1.977,1.353,0.541,0.996,0.923,�k�k��,3.4,��
2017/04/23,06:50,1.018,1.653,1.106,1.974,1.351,0.542,0.994,0.920,�k�k��,4.3,��
2017/04/23,07:00,1.015,1.654,1.106,1.974,1.353,0.541,0.996,0.921,�k,4.4,��
2017/04/23,07:10,1.018,1.656,1.107,1.977,1.354,0.541,0.996,0.923,�k,4.6,��
2017/04/23,07:20,1.019,1.654,1.103,1.979,1.353,0.541,0.997,0.921,�k,4.3,��
2017/04/23,07:30,1.021,1.654,1.107,1.980,1.351,0.540,0.995,0.921,�k,5.2,��
2017/04/23,07:40,1.021,1.652,1.106,1.979,1.356,0.539,0.996,0.922,�k�k��,5.5,��
2017/04/23,07:50,1.017,1.650,1.104,1.981,1.358,0.541,0.998,0.922,�k�k��,5.5,��
2017/04/23,08:00,1.020,1.655,1.107,1.978,1.356,0.538,0.997,0.923,�k�k��,6.6,��
2017/04/23,08:10,1.019,1.653,1.106,1.981,1.358,0.542,0.997,0.922,�k�k��,5.6,��
2017/04/23,08:20,1.020,1.653,1.103,1.978,1.359,0.541,0.995,0.921,�k�k��,6.4,��
2017/04/23,08:30,1.022,1.654,1.108,1.980,1.359,0.539,0.995,0.921,�k�k��,6.5,��
2017/04/23,08:40,1.022,1.651,1.107,1.980,1.358,0.540,0.997,0.922,�k�k��,6.7,��
2017/04/23,08:50,1.022,1.652,1.105,1.982,1.356,0.540,0.995,0.922,�k�k��,6.2,��
2017/04/23,09:00,1.023,1.654,1.106,1.979,1.361,0.541,0.994,0.921,�k�k��,6.2,��
2017/04/23,09:10,1.021,1.654,1.106,1.983,1.358,0.541,0.993,0.918,�k�k��,6.7,��
2017/04/23,09:20,1.023,1.658,1.107,1.978,1.360,0.539,0.996,0.919,�k�k��,7.1,��
2017/04/23,09:30,1.023,1.652,1.106,1.977,1.359,0.541,0.995,0.917,�k�k��,5.7,��
2017/04/23,09:40,1.022,1.654,1.108,1.980,1.359,0.540,0.994,0.920,�k��,5.5,��
2017/04/23,09:50,1.022,1.656,1.107,1.983,1.361,0.540,0.994,0.920,�k�k��,4.9,��
2017/04/23,10:00,1.023,1.655,1.108,1.981,1.361,0.541,0.995,0.920,�k��,5.7,��
2017/04/23,10:10,1.022,1.656,1.109,1.981,1.361,0.542,0.994,0.919,�k��,6.1,��
2017/04/23,10:20,1.023,1.657,1.109,1.983,1.359,0.542,0.995,0.920,�k��,6.7,��
2017/04/23,10:30,1.024,1.659,1.107,1.983,1.360,0.542,0.996,0.920,�k��,6.6,��
2017/04/23,10:40,1.024,1.656,1.106,1.983,1.363,0.541,0.995,0.922,�k�k��,7.2,��
2017/04/23,10:50,1.026,1.656,1.110,1.984,1.361,0.540,0.996,0.920,�k�k��,5.8,��
2017/04/23,11:00,1.025,1.659,1.108,1.984,1.358,0.542,0.995,0.921,�k�k��,6.8,��
2017/04/23,11:10,1.025,1.659,1.110,1.987,1.362,0.543,0.994,0.922,�k�k��,8.6,��
2017/04/23,11:20,1.026,1.656,1.110,1.983,1.361,0.541,0.996,0.920,�k��,8.2,��
2017/04/23,11:30,1.026,1.660,1.112,1.986,1.363,0.541,0.996,0.920,�k�k��,9.0,��
2017/04/23,11:40,1.029,1.659,1.109,1.987,1.362,0.542,0.996,0.919,�k�k��,8.2,��
2017/04/23,11:50,1.026,1.660,1.108,1.981,1.363,0.543,0.997,0.921,�k�k��,8.0,��
2017/04/23,12:00,1.023,1.660,1.111,1.982,1.364,0.543,0.996,0.920,�k��,6.5,��
2017/04/23,12:10,1.023,1.660,1.110,1.980,1.361,0.542,0.997,0.918,�k��,6.1,��
2017/04/23,12:20,1.024,1.664,1.109,1.982,1.363,0.542,0.998,0.923,�k��,5.9,��
2017/04/23,12:30,1.022,1.663,1.107,1.982,1.361,0.541,0.997,0.921,�k��,6.1,��
2017/04/23,12:40,1.026,1.662,1.109,1.985,1.363,0.542,0.999,0.920,�k��,4.8,��
2017/04/23,12:50,1.025,1.662,1.108,1.984,1.362,0.542,0.998,0.921,�k��,5.2,��
2017/04/23,13:00,1.026,1.660,1.107,1.987,1.366,0.540,0.996,0.921,�k��,4.6,��
2017/04/23,13:10,1.026,1.662,1.112,1.986,1.366,0.541,0.997,0.922,�k�k��,4.3,��
2017/04/23,13:20,1.024,1.661,1.110,1.986,1.364,0.543,0.996,0.921,�k��,4.1,��
2017/04/23,13:30,1.026,1.659,1.110,1.988,1.366,0.542,0.999,0.921,�k��,3.1,��
2017/04/23,13:40,1.027,1.662,1.111,1.987,1.369,0.540,0.998,0.920,�k��,3.6,��
2017/04/23,13:50,1.024,1.663,1.111,1.988,1.365,0.542,0.999,0.919,�k�k��,4.3,��
2017/04/23,14:00,1.024,1.663,1.108,1.986,1.364,0.543,0.997,0.919,�k��,5.2,��
2017/04/23,14:10,1.027,1.662,1.111,1.990,1.368,0.545,0.996,0.919,�k,4.4,��
2017/04/23,14:20,1.026,1.662,1.111,1.988,1.365,0.544,0.997,0.921,�k�k��,3.7,��
2017/04/23,14:30,1.027,1.664,1.112,1.989,1.367,0.543,0.997,0.921,�k,4.8,��
2017/04/23,14:40,1.027,1.664,1.111,1.987,1.364,0.543,0.997,0.922,�k�k��,4.1,��
2017/04/23,14:50,1.027,1.664,1.112,1.986,1.365,0.544,0.998,0.919,�k��,4.4,��
2017/04/23,15:00,1.026,1.664,1.112,1.985,1.368,0.544,0.997,0.921,�k�k��,4.2,��
2017/04/23,15:10,1.028,1.666,1.110,1.987,1.366,0.544,0.995,0.920,�k�k��,4.5,��
2017/04/23,15:20,1.025,1.667,1.111,1.986,1.365,0.543,0.998,0.920,�k�k��,3.8,��
2017/04/23,15:30,1.025,1.666,1.109,1.983,1.367,0.545,0.997,0.918,�k�k��,4.7,��
2017/04/23,15:40,1.026,1.665,1.108,1.984,1.370,0.545,0.997,0.920,�k�k��,4.0,��
2017/04/23,15:50,1.025,1.668,1.110,1.985,1.370,0.545,0.998,0.920,�k,4.0,��
2017/04/23,16:00,1.027,1.664,1.111,1.988,1.367,0.545,0.997,0.922,�k,3.1,��
2017/04/23,16:10,1.027,1.665,1.110,1.989,1.366,0.544,0.998,0.921,�k�k��,2.6,��
2017/04/23,16:20,1.027,1.669,1.112,1.986,1.368,0.544,0.997,0.921,�k�k��,3.1,��
2017/04/23,16:30,1.028,1.666,1.114,1.984,1.365,0.545,0.998,0.923,�k��,2.8,��
2017/04/23,16:40,1.024,1.665,1.112,1.992,1.368,0.543,0.997,0.923,�k�k��,3.2,��
2017/04/23,16:50,1.026,1.665,1.113,1.990,1.367,0.544,0.997,0.922,�k��,2.8,��
2017/04/23,17:00,1.027,1.668,1.111,1.989,1.370,0.543,0.996,0.923,�k�k��,2.3,��
2017/04/23,17:10,1.027,1.668,1.111,1.989,1.368,0.544,0.997,0.925,�k��,3.1,��
2017/04/23,17:20,1.027,1.667,1.113,1.987,1.367,0.544,0.997,0.924,�k��,2.5,��
2017/04/23,17:30,1.026,1.665,1.112,1.987,1.369,0.544,0.996,0.923,�k��,3.3,��
2017/04/23,17:40,1.028,1.665,1.113,1.988,1.368,0.543,0.995,0.924,�k��,2.8,��
2017/04/23,17:50,1.027,1.666,1.114,1.989,1.370,0.544,0.996,0.924,�k��,2.6,��
2017/04/23,18:00,1.027,1.668,1.111,1.988,1.371,0.545,0.996,0.925,�k��,2.6,��
2017/04/23,18:10,1.026,1.667,1.111,1.988,1.371,0.545,0.998,0.925,�k��,2.9,��
2017/04/23,18:20,1.024,1.667,1.110,1.985,1.368,0.544,0.995,0.922,�k�k��,2.9,��
2017/04/23,18:30,1.024,1.666,1.111,1.988,1.370,0.542,0.997,0.923,�k��,3.5,��
2017/04/23,18:40,1.026,1.665,1.109,1.987,1.369,0.544,0.995,0.924,�k��,4.1,��
2017/04/23,18:50,1.025,1.665,1.110,1.987,1.370,0.543,0.997,0.924,�k��,3.8,��
2017/04/23,19:00,1.026,1.666,1.112,1.990,1.368,0.542,0.998,0.922,�k��,4.1,��
2017/04/23,19:10,1.026,1.661,1.112,1.986,1.366,0.543,0.997,0.924,�k��,3.7,��
2017/04/23,19:20,1.024,1.661,1.109,1.987,1.366,0.542,0.999,0.924,�k��,2.8,��
2017/04/23,19:30,1.027,1.665,1.110,1.986,1.366,0.543,0.996,0.921,�k��,3.0,��
2017/04/23,19:40,1.026,1.663,1.112,1.985,1.368,0.541,0.997,0.922,�k��,3.2,��
2017/04/23,19:50,1.024,1.663,1.111,1.983,1.367,0.542,0.997,0.922,�k��,3.0,��
2017/04/23,20:00,1.026,1.662,1.110,1.987,1.368,0.542,0.998,0.923,�k�k��,2.6,��
2017/04/23,20:10,1.027,1.662,1.110,1.983,1.366,0.542,0.998,0.923,�k�k��,2.6,��
2017/04/23,20:20,1.024,1.661,1.107,1.984,1.367,0.542,0.997,0.922,�k�k��,2.9,��
2017/04/23,20:30,1.024,1.663,1.107,1.983,1.366,0.544,0.999,0.921,�k�k��,2.6,��
2017/04/23,20:40,1.024,1.661,1.109,1.982,1.364,0.543,0.995,0.922,�k��,2.5,��
2017/04/23,20:50,1.025,1.663,1.110,1.984,1.368,0.542,0.997,0.923,�k��,1.2,��
2017/04/23,21:00,1.025,1.664,1.109,1.982,1.367,0.540,0.995,0.922,�k��,1.1,��
2017/04/23,21:10,1.024,1.663,1.109,1.986,1.369,0.542,0.996,0.922,�k��,1.7,��
2017/04/23,21:20,1.023,1.662,1.108,1.986,1.366,0.540,0.996,0.922,���k��,2.0,��
2017/04/23,21:30,1.022,1.661,1.110,1.985,1.366,0.542,0.996,0.921,�k��,2.0,��
2017/04/23,21:40,1.023,1.662,1.108,1.982,1.365,0.543,0.996,0.924,���k��,2.3,��
2017/04/23,21:50,1.023,1.662,1.110,1.983,1.363,0.543,0.996,0.922,�k�k��,2.6,��
2017/04/23,22:00,1.022,1.663,1.111,1.983,1.364,0.543,0.997,0.921,�k��,2.5,��
2017/04/23,22:10,1.023,1.660,1.109,1.985,1.365,0.541,0.996,0.921,���k��,1.9,��
2017/04/23,22:20,1.023,1.661,1.108,1.982,1.365,0.541,0.997,0.922,��,2.0,��
2017/04/23,22:30,1.024,1.659,1.109,1.983,1.365,0.542,0.995,0.921,���k��,1.7,��
2017/04/23,22:40,1.022,1.658,1.108,1.983,1.365,0.541,0.994,0.921,���k��,1.9,��
2017/04/23,22:50,1.020,1.662,1.109,1.986,1.366,0.541,0.995,0.922,��,1.7,��
2017/04/23,23:00,1.024,1.660,1.107,1.983,1.367,0.541,0.997,0.921,��,1.4,��
2017/04/23,23:10,1.022,1.658,1.107,1.983,1.364,0.541,0.995,0.920,��,2.0,��
2017/04/23,23:20,1.022,1.660,1.107,1.983,1.365,0.541,0.995,0.922,���k��,1.4,��
2017/04/23,23:30,1.024,1.661,1.109,1.981,1.367,0.542,0.995,0.924,���쓌,1.7,��
2017/04/23,23:40,1.024,1.663,1.109,1.982,1.366,0.540,0.997,0.921,���쓌,2.0,��
2017/04/23,23:50,1.021,1.660,1.108,1.984,1.366,0.542,0.997,0.920,��,1.5,��
